Location: Pensacola
(30.4142°N, 87.2155°W)
Time: 09:51:35
(UTC-06:00)

N. Korean satellite - Visible Passes

Search period start: 23 January 2018 00:00
Search period end: 02 February 2018 00:00
Orbit: 458 x 515 km, 97.2° (Epoch: 23 January)

Date Brightness Start Highest point End Pass type
(mag) Time Alt. Az. Time Alt. Az. Time Alt. Az.
23 Jan 7.3 06:14:30 10° NNE 06:17:53 56° E 06:21:18 10° S visible
23 Jan 8.4 18:18:30 10° SSW 18:21:49 34° W 18:25:05 10° NNW visible
24 Jan 9.2 05:51:19 10° NE 05:54:11 24° E 05:57:04 10° SSE visible
24 Jan 6.6 17:54:33 10° S 17:58:08 83° W 18:01:41 10° NNW visible
25 Jan 10.2 05:29:18 10° ENE 05:30:25 11° E 05:31:33 10° ESE visible
26 Jan 9.8 18:42:00 10° SW 18:44:20 16° W 18:46:39 10° NW visible
27 Jan 7.4 06:13:15 10° NNE 06:16:40 55° E 06:20:06 10° S visible
27 Jan 8.3 18:17:18 10° SSW 18:20:36 35° W 18:23:51 10° NNW visible
28 Jan 9.3 05:50:05 10° NE 05:52:58 24° E 05:55:50 10° SSE visible
28 Jan 6.6 17:53:21 10° S 17:56:55 86° W 18:00:25 10° NNW visible
29 Jan 10.3 05:28:08 10° ENE 05:29:11 11° E 05:30:13 10° ESE visible
30 Jan 9.8 18:40:44 10° SW 18:43:05 17° W 18:45:25 10° NW visible
31 Jan 7.5 06:11:59 10° NNE 06:15:24 53° E 06:18:53 10° S visible
31 Jan 8.3 18:16:04 10° SSW 18:19:20 36° W 18:22:34 10° NNW visible
01 Feb 9.3 05:48:49 10° NE 05:51:41 23° E 05:54:35 10° SSE visible
01 Feb 6.5 17:52:08 10° SSE 17:55:38 89° WSW 17:59:07 10° NNW visible
